loading
|
Showing default

OPS 9325 (IDSCS 12), 2652

Orbit data source: Space-Track

OPS 9325 (IDSCS 12), 2652 is a payload satellite owned by USAF SSD (US) that was launched on Wed, 18 Jan 1967 UTC via a TITAN IIIC launch vehicle from the Air Force Eastern Test Range (AFETR). Payloads include a variety of satellites, spacecraft, and rockets equipped with specific instruments for various scientific and technological missions. These include communications satellites like Starlink; space stations such as the ISS; scientific satellites like the Hubble; Earth observation satellites from companies like Planet Labs, Umbra, and HawkEye 360; GPS; miniature CubeSats for education and research; and military/defense satellites.

Loading next visibility...
Loading greatness...
OPS 9325 (IDSCS 12) details
Identifier
2652, 1967-003E
Orbit
Active
Last TLE update2 days ago
Origin
Flag of USUSAF SSD (US)
ManufacturerPhilco-Ford WDL
MissionNon-operational Defense Communications
Bus & MotorIDCSP, Unknown motor
Mass45 kg wet, 45 kg dry
Launch date (UTC)
1967-01-18 (58 years ago)
Launch vehicle
TITAN IIIC
Launch site
Air Force Eastern Test Range (AFETR)
Object type
Payload
Rocket body
Debris
Shape & HBRIco Poly, 0.9 m
Radar Cross Section0.926 m², Small (<0.1 m²)

Expand to show TLE details & history

TLE from 2 days ago
0 OPS 9325 (IDSCS 12)
1 02652U 67003E   24275.52947312 -.00000087  00000-0  00000-0 0  9990
2 02652   7.0699  51.1756 0039784  65.1309 295.3797  1.07943626133386
Epoch: 2024-10-01T12:42Z
Definitive object data (Epoch: 2024-10-01T12:42:26.477Z)
Latitude-0.00001°
Longitude-150.10017°
Altitude33,696.698 km
Speed3.156 km/s
True Right ascension03h 25m 00s
True Declination0° 00' 00"
Sunlit
Object was in daylight at TLE epoch
Predictive object data (real-time)
Latitude7.04776°
Longitude-63.64884°
Altitude33,614.774 km
Speed3.163 km/s
Apparent Right ascension09h 17m 57s
Apparent Declination1° 21' 46"
Sunlit
Object is in daylight
Predictive observer data (real-time)
Local Sidereal Time08:19:25
Azimuth157.253° SSE
Elevation49.214°
Doppler factor1
Orbital elements
Apogee33,925.114 km
Perigee33,605.7 km
Semi-major axis40,143.544 km
Eccentricity0.0039784
Inclination7.0699°
RAAN51.1756°
Arg. of periapsis65.1309°
True anomaly294.96693°
Mean anomaly295.3797°
Eccentric anomaly295.1734°
Mean motion0.26985 °/min
BSTARUnknown
Period1334.08 mins
No data available

OPS 9325 (IDSCS 12) Visibility forecast

Observer location: 39.9160978°, -105.1181434

OPS 9325 (IDSCS 12) is not visible in the next 10 days
Span
Click to sort rows by Start time (UTC) header in descending order
Start Az.
Max El. time (UTC)
Max El. Az.
Max El.
End time (UTC)
End Az.